Meteo Giornale » Osservazioni meteo Sant'Eelena » Wide Awake Fld Ascension Island
ore: 07:50 - Osservazioni Meteo Wide Awake Fld Ascension Island
Lat. 7° 58' S Lon. 14° 24' W Alt. 86 metri s.l.m.
24 °C
Nuvoloso
Temp. 24 Ore
23 °C
27 °C
Est/Sud-Est
16.7 Km/h
Dew point 17 °C
Umidità 64 %
Visibilità 10 Km
Il sole sorge alle ore 06:58
Il sole tramonta alle ore 18:56
| Data e Ora | Cielo e Fenomeni | T °C | DP °C | Um. % | Pres. hPa | Vis. km | Vento km/h | |
|---|---|---|---|---|---|---|---|---|
| Oggi h: 07:50 | Nuvoloso | 24 | 17 | 64 | 1016 | 10 | E/SE 16.7 | |
| Oggi h: 07:20 | Coperto | 24 | 17 | 64 | 1016 | 10 | SE 18.5 | |
| Oggi h: 06:50 | Coperto | 24 | 18 | 69 | 1016 | 10 | SE 16.7 | |
| Oggi h: 06:20 | Coperto | 24 | 18 | 69 | 1016 | 10 | SE 20.3 | |
| Oggi h: 05:50 | Coperto | 24 | 17 | 64 | 1015 | 10 | SE 20.3 | |
| Oggi h: 05:20 | Molto Nuvoloso | 24 | 17 | 64 | 1015 | 10 | SE 20.3 | |
| Oggi h: 04:50 | Coperto | 24 | 18 | 69 | 1015 | 10 | SE 14.8 | |
| Oggi h: 04:20 | Coperto | 23 | 19 | 78 | 1015 | 10 | SE 20.3 | |
| Oggi h: 03:50 | Coperto | 24 | 18 | 69 | 1015 | 10 | SE 20.3 | |
| Oggi h: 03:20 | Coperto | 24 | 19 | 73 | 1015 | 10 | SE 20.3 | |
| Oggi h: 02:50 | Coperto | 24 | 19 | 73 | 1016 | 10 | SE 20.3 | |
| Oggi h: 02:20 | Coperto | 24 | 19 | 73 | 1016 | 10 | SE 22.2 | |
| Oggi h: 01:50 | Coperto | 24 | 19 | 73 | 1016 | 10 | SE 22.2 | |
| Oggi h: 01:20 | Coperto | 24 | 20 | 78 | 1016 | 10 | SE 22.2 | |
| Oggi h: 00:50 | Coperto | 24 | 19 | 73 | 1017 | 10 | SE 22.2 | |
| Oggi h: 00:20 | Molto Nuvoloso | 23 | 19 | 78 | 1017 | 10 | SE 22.2 | |
| Ieri h: 23:50 | Coperto | 24 | 19 | 73 | 1017 | 10 | SE 20.3 | |
| Ieri h: 23:20 | Coperto | 24 | 19 | 73 | 1017 | 10 | SE 24 | |
| Ieri h: 22:50 | Coperto | 24 | 19 | 73 | 1017 | 10 | SE 20.3 | |
| Ieri h: 22:20 | Coperto | 24 | 19 | 73 | 1016 | 10 | SE 18.5 | |
| Ieri h: 21:50 | Coperto | 24 | 19 | 73 | 1016 | 10 | SE 24 | |
| Ieri h: 21:20 | Coperto | 24 | 19 | 73 | 1016 | 10 | SE 20.3 | |
| Ieri h: 20:50 | Coperto | 24 | 19 | 73 | 1016 | 10 | E/SE 11.1 | |
| Ieri h: 20:20 | Molto Nuvoloso | 24 | 19 | 73 | 1015 | 10 | SE 22.2 | |
| Ieri h: 19:50 | Coperto | 24 | 19 | 73 | 1015 | 10 | SE 18.5 | |
| Ieri h: 19:20 | Coperto | 24 | 18 | 69 | 1015 | 10 | SE 20.3 | |
| Ieri h: 18:50 | Molto Nuvoloso | 24 | 18 | 69 | 1015 | 10 | E/SE 20.3 | |
| Ieri h: 18:20 | Nuvoloso | 24 | 19 | 73 | 1014 | 10 | SE 25.9 | |
| Ieri h: 17:50 | Coperto | 24 | 18 | 69 | 1014 | 10 | SE 25.9 | |
| Ieri h: 17:20 | Coperto | 25 | 19 | 69 | 1014 | 10 | SE 24 | |
| Ieri h: 16:50 | Pioggia | 24 | 20 | 78 | 1014 | 7 | SE 27.8 | |
| Ieri h: 16:20 | Molto Nuvoloso | 25 | 20 | 73 | 1014 | 10 | S/SE 31.5 | |
| Ieri h: 15:50 | Molto Nuvoloso | 26 | 19 | 65 | 1014 | 10 | SE 25.9 | |
| Ieri h: 15:20 | Coperto | 25 | 19 | 69 | 1014 | 10 | SE 25.9 | |
| Ieri h: 14:50 | Molto Nuvoloso | 26 | 19 | 65 | 1014 | 10 | SE 29.6 | |
| Ieri h: 14:20 | Molto Nuvoloso | 26 | 20 | 69 | 1014 | 10 | SE 31.5 | |
| Ieri h: 13:50 | Molto Nuvoloso | 26 | 19 | 65 | 1015 | 3 | SE 27.8 | |
| Ieri h: 13:20 | Molto Nuvoloso | 27 | 20 | 65 | 1015 | 10 | S/SE 31.5 | |
| Ieri h: 12:50 | Molto Nuvoloso | 26 | 19 | 65 | 1015 | 10 | SE 27.8 | |
| Ieri h: 12:20 | Coperto | 26 | 19 | 65 | 1016 | 10 | SE 27.8 | |
| Ieri h: 11:50 | Molto Nuvoloso | 25 | 19 | 69 | 1016 | 10 | SE 27.8 | |
| Ieri h: 11:20 | Molto Nuvoloso | 26 | 18 | 61 | 1016 | 10 | E/SE 29.6 | |
| Ieri h: 10:50 | Molto Nuvoloso | 25 | 19 | 69 | 1016 | 10 | SE 29.6 | |
| Ieri h: 10:20 | Molto Nuvoloso | 24 | 20 | 78 | 1016 | 10 | SE 29.6 | |
| Ieri h: 09:50 | Molto Nuvoloso | 24 | 20 | 78 | 1016 | 10 | SE 24 | |
| Ieri h: 09:20 | Molto Nuvoloso | 24 | 19 | 73 | 1016 | 10 | SE 25.9 | |
| Ieri h: 08:50 | Molto Nuvoloso | 24 | 19 | 73 | 1016 | 10 | SE 22.2 | |



